Content
SEND FEEDBACK

Daily
Averages
Monthly
Summary
United States of America

CHELSEA, MICHIGAN


Home > North America > United States > Michigan
Elevation: 900 feet     Latitude: 42 19N     Longitude: 084 01W

WEATHER
 
SELECT A DAY
Number of Records: 203,415;   Date Range: 1/1/95 - 7/29/14
 
SHARE

PRINT THIS DATA

[ ← Previous Day ]
WEATHER ALMANAC - MAY 12, 2013
[ Next Day → ]
[ °C ]   °F
Weather ElementAverageHighLow
Temperature40.3 °F48.9 °F (2:53 pm)30.9 °F (11:53 pm)
Dewpoint27.6 °F32 °F (6:07 am)23 °F (8:53 pm)
Humidity62.4 %85 % (1:53 am)43 % (2:53 pm)
Barometer29.98 in30.11 in (10:53 pm)29.89 in (6:07 am)
Wind Speed13.5 mph20.7 mph (7:53 am)
Wind Gust32.2 mph (9:53 am)
Weather ElementAverage
Visibility10 mi
Wind DirectionWNW (287.2 °)

Weather ElementTotal
Precipitation---
Heating Degree Days25.1 (Base 65)
Averaged from 25 records on May 12, 2013
WEATHER CONDITIONS BREAKOUT
WIND DIRECTION BREAKOUT
WEATHER BY HOUR - MAY 12, 2013
[ °C ]   °F
Local TimeTemperatureDewpointHumidityBarometerVisibilityWind DirectionWind SpeedGust SpeedPrecipitationEventsConditions
1:53 AM34.0 °F30.0 °F85 %29.92 in10.0 miWSW (240°)6.9 mphClear
2:53 AM34.0 °F30.0 °F85 %29.91 in10.0 miWSW (240°)6.9 mphClear
3:53 AM34.0 °F30.0 °F85 %29.90 in10.0 miWest (260°)8.1 mphClear
4:53 AM34.0 °F30.0 °F85 %29.90 in10.0 miWSW (250°)8.1 mphClear
5:53 AM36.0 °F30.9 °F82 %29.90 in10.0 miWest (280°)10.4 mphPartly Cloudy
6:07 AM37.4 °F32.0 °F81 %29.89 in10.0 miWest (280°)10.4 mphMostly Cloudy
6:49 AM37.4 °F30.2 °F75 %29.90 in10.0 miWNW (290°)12.7 mphOvercast
6:53 AM37.9 °F30.9 °F76 %29.91 in10.0 miWest (280°)13.8 mphOvercast
7:53 AM39.0 °F28.0 °F65 %29.92 in10.0 miWNW (290°)20.7 mph31.1 mphMostly Cloudy
8:53 AM39.9 °F27.0 °F60 %29.94 in10.0 miWNW (300°)20.7 mph31.1 mphOvercast
9:53 AM42.1 °F27.0 °F55 %29.96 in10.0 miNW (310°)17.3 mph32.2 mphOvercast
10:53 AM43.0 °F28.0 °F56 %29.97 in10.0 miNW (310°)15.0 mph20.7 mphOvercast
11:53 AM45.0 °F28.0 °F52 %29.98 in10.0 miWNW (290°)13.8 mphOvercast
12:53 PM46.9 °F28.0 °F48 %29.98 in10.0 miNW (310°)18.4 mph26.5 mphMostly Cloudy
1:53 PM46.9 °F26.1 °F44 %29.99 in10.0 miNW (320°)19.6 mph28.8 mphOvercast
2:53 PM48.9 °F27.0 °F43 %29.99 in10.0 miWNW (300°)17.3 mph32.2 mphOvercast
3:53 PM48.9 °F28.0 °F44 %30.00 in10.0 miWNW (300°)20.7 mph29.9 mphOvercast
4:53 PM45.0 °F27.0 °F49 %30.02 in10.0 miWNW (290°)18.4 mph31.1 mphOvercast
5:53 PM45.0 °F26.1 °F48 %30.04 in10.0 miWest (280°)20.7 mph27.6 mphOvercast
6:53 PM44.1 °F24.1 °F45 %30.05 in10.0 miWNW (300°)17.3 mph24.2 mphOvercast
7:53 PM43.0 °F25.0 °F49 %30.06 in10.0 miWNW (300°)15.0 mph23.0 mphOvercast
8:53 PM42.1 °F23.0 °F47 %30.08 in10.0 miWNW (300°)10.4 mph21.9 mphOvercast
9:53 PM37.9 °F23.0 °F55 %30.09 in10.0 miWNW (300°)5.8 mphClear
10:53 PM35.1 °F25.0 °F67 %30.11 in10.0 miWNW (300°)4.6 mphPartly Cloudy
11:53 PM30.9 °F25.0 °F79 %30.11 in10.0 miWest (260°)4.6 mphClear
Hourly data recorded from KARB, located miles away from Chelsea, Michigan







STORIES FROM OUR PARTNERS